Terminal Aerodrome Forecast
Issued by NWS

Home | Current Version | Previous Version | Text Only | Print | Product List | Glossary On
Versions: 1 2 3 4 5 6 7 8 9 10 11 12 13 14 15 16 17 18 19 20 21 22 23 24 25 26 27 28 29 30
000
FTUS46 KLOX 201700 RRA
TAFOXR
TAF
KOXR 201745Z 2018/2118 00000KT P6SM BKN015
     FM201830 VRB03KT P6SM SCT020 SCT150
     FM202000 26010KT P6SM SCT020 SCT150
     FM210400 VRB03KT P6SM SCT150
     FM210800 VRB03KT P6SM BKN015=

USA.gov is the U.S. government's official web portal to all federal, state and local government web resources and services.